User: anonymous   Login
Location: Unspecified
(0.0000°N, 0.0000°E)
Time: 05:48:22
(UTC+00:00)
Language:

M-CUBED/EXP-1 PRIME - Orbit

View from above orbital plane
View from above orbital plane
View from above satellite
View from above satellite

Ground track
Ground track

The orbit data is extracted from the following two-line orbital elements,

1 37855U 11061F   20190.83152413 +.00000467 +00000-0 +31057-4 0  9993
2 37855 101.7145 290.2566 0170735 011.5251 348.9794 15.06362168474420
Epoch (UTC): 08 July 2020 19:57:23
Eccentricity: 0.0170735
inclination: 101.7145°
perigee height: 429 km
apogee height: 665 km
right ascension of ascending node: 290.2566°
argument of perigee: 11.5251°
revolutions per day: 15.06362168
mean anomaly at epoch: 348.9794°
orbit number at epoch: 47442

The dashed part of the orbit path shows where the satellite is in the earth's shadow,  

DLR